Date String (YYYY-MM-DD hh:mm:ss) UTC,Instrument flags,Ambient pressure (hPa),Sample flow (lpm),Bypass flow (lpm),Sample temperature (°C),Ambient temperature (°C),ASC tube jacket temperature (°C),LED temperature (°C),Box temperature (°C),Sample RH (%),Span deviation,Mass concentration (μg/m³),Mass concentration (μg/m³),Mass concentration (μg/m³)
DateTimeUTC,F1_M11,P_M11,Q1_M11,Q2_M11,T1_M11,T2_M11,T3_M11,T4_M11,T5_M11,U1_M11,ZSPAN_M11,X0_M11,X2_M11,X1_M11
2023-02-22 04:00:00,,0804.8,5.00,0.00,22.4,20.4,00.0,31.2,24.0,15.8,0000.0,0008.32,0002.10,0001.30
2023-02-22 04:01:00,,0804.8,5.01,0.00,22.4,20.4,00.0,31.2,24.0,15.8,0000.0,0009.20,0002.10,0001.30
2023-02-22 04:02:00,,0804.7,5.00,0.00,22.3,20.4,00.0,31.2,24.0,15.8,0000.0,0009.54,0002.11,0001.30
2023-02-22 04:03:00,,0804.7,5.01,0.00,22.3,20.4,00.0,31.2,24.0,15.9,0000.0,0009.39,0002.10,0001.30
2023-02-22 04:04:00,,0804.7,5.00,0.00,22.3,20.3,00.0,31.2,24.0,15.9,0000.0,0009.15,0002.09,0001.31
2023-02-22 04:05:00,,0804.7,5.00,0.00,22.3,20.3,00.0,31.2,24.0,15.8,0000.0,0009.19,0002.08,0001.31
2023-02-22 04:06:00,,0804.8,5.00,0.00,22.3,20.3,00.0,31.2,24.0,15.9,0000.0,0009.71,0002.13,0001.31
2023-02-22 04:07:00,,0804.7,4.99,0.00,22.3,20.4,00.0,31.1,23.9,15.9,0000.0,0009.70,0002.18,0001.32
2023-02-22 04:08:00,,0804.8,5.01,0.00,22.3,20.4,00.0,31.1,24.0,16.0,0000.0,0009.69,0002.20,0001.33
2023-02-22 04:09:00,,0804.8,5.01,0.00,22.3,20.4,00.0,31.1,24.0,16.0,0000.0,0009.66,0002.21,0001.34
2023-02-22 04:10:00,,0804.8,4.99,0.00,22.3,20.4,00.0,31.1,23.9,16.0,0000.0,0009.04,0002.28,0001.35
2023-02-22 04:11:00,,0804.8,5.00,0.00,22.3,20.4,00.0,31.1,23.9,16.0,0000.0,0009.04,0002.37,0001.35
2023-02-22 04:12:00,,0804.8,4.99,0.00,22.2,20.4,00.0,31.1,23.9,15.9,0000.0,0008.06,0002.40,0001.38
2023-02-22 04:13:00,,0804.7,5.00,0.00,22.2,20.4,00.0,31.1,23.9,15.9,0000.0,0007.70,0002.37,0001.38
2023-02-22 04:14:00,,0804.8,5.00,0.00,22.2,20.4,00.0,31.1,23.9,15.9,0000.0,0008.03,0002.38,0001.39
2023-02-22 04:15:00,,0804.8,5.00,0.00,22.2,20.4,00.0,31.1,24.0,15.9,0000.0,0008.45,0002.36,0001.39
2023-02-22 04:16:00,,0804.7,5.01,0.00,22.2,20.5,00.0,31.1,23.9,15.9,0000.0,0007.85,0002.43,0001.41
2023-02-22 04:17:00,,0804.7,4.99,0.00,22.2,20.5,00.0,31.1,23.9,16.0,0000.0,0007.10,0002.45,0001.42
2023-02-22 04:18:00,,0804.8,4.99,0.00,22.2,20.5,00.0,31.1,23.9,15.9,0000.0,0007.24,0002.44,0001.43
2023-02-22 04:19:00,,0804.8,5.00,0.00,22.2,20.5,00.0,31.1,24.0,15.9,0000.0,0007.22,0002.46,0001.44
2023-02-22 04:20:00,,0804.7,5.00,0.00,22.2,20.5,00.0,31.1,24.0,15.9,0000.0,0007.33,0002.49,0001.45
2023-02-22 04:21:00,,0804.8,4.96,0.00,22.2,20.5,00.0,31.1,24.0,15.9,0000.0,0008.03,0002.48,0001.46
2023-02-22 04:22:00,,0804.7,4.98,0.00,22.2,20.5,00.0,31.0,24.0,15.9,0000.0,0007.81,0002.42,0001.47
2023-02-22 04:23:00,,0804.8,5.00,0.00,22.2,20.6,00.0,31.0,24.0,15.9,0000.0,0007.78,0002.41,0001.48
2023-02-22 04:24:00,,0804.8,5.00,0.00,22.2,20.6,00.0,31.0,24.0,15.9,0000.0,0007.87,0002.42,0001.49
2023-02-22 04:25:00,,0804.8,5.00,0.00,22.2,20.6,00.0,31.0,24.0,15.7,0000.0,0007.45,0002.41,0001.50
2023-02-22 04:26:00,,0804.8,4.99,0.00,22.2,20.6,00.0,31.0,24.0,15.8,0000.0,0008.59,0002.42,0001.52
2023-02-22 04:27:00,,0804.8,5.02,0.00,22.2,20.6,00.0,31.0,24.0,15.8,0000.0,0008.61,0002.35,0001.51
2023-02-22 04:28:00,,0804.8,5.04,0.00,22.2,20.6,00.0,31.0,23.9,15.7,0000.0,0008.55,0002.33,0001.50
2023-02-22 04:29:00,,0804.8,5.01,0.00,22.2,20.5,00.0,31.0,24.0,15.8,0000.0,0008.64,0002.35,0001.49
2023-02-22 04:30:00,,0804.8,4.98,0.00,22.2,20.5,00.0,31.0,24.0,15.9,0000.0,0008.76,0002.33,0001.47
2023-02-22 04:31:00,,0804.8,4.99,0.00,22.2,20.5,00.0,31.0,24.0,15.9,0000.0,0008.55,0002.26,0001.46
2023-02-22 04:32:00,,0804.8,5.03,0.00,22.2,20.5,00.0,31.0,24.0,15.7,0000.0,0007.84,0002.23,0001.45
2023-02-22 04:33:00,,0804.8,5.03,0.00,22.2,20.5,00.0,31.0,23.9,15.8,0000.0,0007.90,0002.26,0001.43
2023-02-22 04:34:00,,0804.8,5.01,0.00,22.2,20.4,00.0,31.0,23.9,15.8,0000.0,0007.81,0002.23,0001.42
2023-02-22 04:35:00,,0804.8,4.99,0.00,22.2,20.4,00.0,31.0,23.9,15.8,0000.0,0007.75,0002.23,0001.41
2023-02-22 04:36:00,,0804.8,5.00,0.00,22.2,20.3,00.0,31.0,23.8,15.8,0000.0,0008.41,0002.23,0001.41
2023-02-22 04:37:00,,0804.8,5.00,0.00,22.2,20.3,00.0,31.0,23.9,15.8,0000.0,0006.51,0002.23,0001.40
2023-02-22 04:38:00,,0804.8,5.00,0.00,22.2,20.3,00.0,31.0,23.8,15.7,0000.0,0006.30,0002.23,0001.40
2023-02-22 04:39:00,,0804.8,5.00,0.00,22.1,20.2,00.0,31.0,23.8,15.8,0000.0,0006.22,0002.16,0001.37
2023-02-22 04:40:00,,0804.8,5.01,0.00,22.1,20.2,00.0,31.0,23.8,15.8,0000.0,0005.82,0002.10,0001.35
2023-02-22 04:41:00,,0804.8,5.01,0.00,22.1,20.1,00.0,30.9,23.8,15.8,0000.0,0005.38,0002.07,0001.36
2023-02-22 04:42:00,,0804.8,4.99,0.00,22.1,20.0,00.0,30.9,23.7,15.8,0000.0,0005.38,0002.08,0001.35
2023-02-22 04:43:00,,0804.8,5.01,0.00,22.0,20.0,00.0,30.9,23.7,15.9,0000.0,0005.28,0002.03,0001.35
2023-02-22 04:44:00,,0804.8,5.00,0.00,22.0,20.0,00.0,30.9,23.7,16.0,0000.0,0005.43,0002.02,0001.35
2023-02-22 04:45:00,,0804.8,5.01,0.00,22.0,20.0,00.0,30.9,23.7,16.0,0000.0,0005.73,0002.06,0001.36
2023-02-22 04:46:00,,0804.9,4.99,0.00,22.0,20.0,00.0,30.9,23.7,16.0,0000.0,0006.11,0002.08,0001.37
2023-02-22 04:47:00,,0804.9,5.00,0.00,22.0,20.0,00.0,30.9,23.6,16.0,0000.0,0005.79,0002.12,0001.37
2023-02-22 04:48:00,,0804.9,5.00,0.00,22.0,20.0,00.0,30.8,23.6,16.1,0000.0,0005.58,0002.07,0001.36
2023-02-22 04:49:00,,0804.9,5.01,0.00,22.0,20.0,00.0,30.8,23.7,16.1,0000.0,0005.53,0002.05,0001.37
2023-02-22 04:50:00,,0804.9,5.01,0.00,22.0,20.1,00.0,30.8,23.7,16.1,0000.0,0005.56,0002.10,0001.42
2023-02-22 04:51:00,,0804.9,4.99,0.00,22.0,20.1,00.0,30.8,23.6,16.1,0000.0,0006.72,0002.15,0001.45
2023-02-22 04:52:00,,0804.9,5.02,0.00,22.0,20.0,00.0,30.8,23.6,16.2,0000.0,0007.53,0002.18,0001.45
2023-02-22 04:53:00,,0804.9,4.99,0.00,21.9,20.0,00.0,30.8,23.6,16.7,0000.0,0008.20,0002.24,0001.47
2023-02-22 04:54:00,,0804.9,4.98,0.00,21.9,20.0,00.0,30.8,23.6,16.9,0000.0,0008.66,0002.29,0001.47
2023-02-22 04:55:00,,0804.9,5.00,0.00,21.9,19.9,00.0,30.8,23.5,16.8,0000.0,0008.77,0002.25,0001.47
2023-02-22 04:56:00,,0805.0,5.00,0.00,21.9,19.9,00.0,30.7,23.5,16.8,0000.0,0008.62,0002.16,0001.44
2023-02-22 04:57:00,,0804.9,5.00,0.00,21.9,19.9,00.0,30.7,23.5,16.6,0000.0,0008.41,0002.10,0001.43
2023-02-22 04:58:00,,0805.0,5.01,0.00,21.8,19.8,00.0,30.7,23.4,16.7,0000.0,0007.86,0002.08,0001.43
2023-02-22 04:59:00,,0805.0,4.99,0.00,21.8,19.8,00.0,30.7,23.4,16.7,0000.0,0007.88,0002.12,0001.45
